Wind_Speed
35 33 31 29 26 22 21 21 26 27 22 29 38 41 38 30 19 25 18 16 12 9 7 2 3 6 7 11 5 12 9 9 19 14 10 5 19 22 30 20 8 8 10 13
34 32 31 31 29 26 21 27 29 29 29 35 40 37 34 35 30 28 26 24 18 17 12 6 3 3 3 3 7 5 3 4 4 3 13 16 18 14 17 21 23 28 13 8
34 32 30 31 31 28 25 27 26 31 37 41 36 36 34 38 34 30 33 27 26 24 24 20 13 17 12 8 8 3 5 5 6 2 3 6 8 9 11 13 17 19 26 17
33 31 30 30 33 30 29 35 29 36 35 44 42 34 38 38 34 27 23 29 30 23 15 17 19 19 22 21 17 16 12 13 10 6 5 10 13 15 18 19 18 22 20 25
33 34 34 34 35 33 35 41 44 39 38 30 39 36 38 40 33 26 24 25 23 30 33 32 31 26 15 12 10 7 11 8 9 14 13 17 20 19 19 27 28 31 27 30
35 36 37 37 38 37 39 41 43 39 34 31 36 44 38 37 35 33 29 23 22 22 21 19 14 16 20 21 20 15 11 6 9 8 9 12 16 18 4 6 8 16 22 22
35 36 39 41 42 43 42 39 40 42 46 33 36 35 36 35 35 27 22 21 23 22 18 21 17 13 17 22 25 19 17 9 7 9 5 7 13 14 14 15 16 23 23 23
34 36 39 47 49 46 48 42 41 43 45 40 25 29 33 28 25 27 24 19 17 14 11 9 7 7 9 15 18 25 22 20 10 6 12 17 14 11 16 19 23 21 25 26
33 35 36 39 48 52 50 46 43 45 44 47 40 37 33 33 31 24 21 27 21 12 11 7 5 4 3 1 3 15 20 24 19 8 4 5 7 10 5 13 24 18 19 19
31 34 35 37 41 46 51 50 46 48 51 45 35 44 44 32 28 25 26 24 22 22 21 15 12 10 6 5 4 7 21 22 26 15 9 14 18 19 17 6 11 13 15 15
30 31 33 34 38 45 46 50 48 51 49 40 33 41 41 39 37 27 23 21 23 22 21 17 9 11 11 14 11 4 13 14 17 17 9 12 6 7 1 10 12 15 11 9
26 28 31 33 34 38 41 46 49 47 46 32 38 32 30 28 29 27 30 24 17 15 16 18 11 15 10 16 8 15 14 13 10 14 12 5 7 8 18 22 23 26 22 11
23 27 28 31 35 35 39 46 45 43 42 44 31 34 26 20 19 16 18 20 26 23 11 14 16 9 10 14 17 12 13 15 21 23 26 26 23 26 29 29 31 30 29 25
26 25 29 23 35 37 40 43 43 43 41 37 30 29 24 22 22 20 17 24 24 22 18 21 17 15 13 15 14 13 12 13 20 27 26 27 25 25 29 24 25 30 32 31
26 25 30 27 33 37 40 37 30 35 38 24 36 27 20 24 26 25 27 32 22 27 24 21 20 17 14 14 17 18 20 21 23 27 27 28 28 27 29 29 27 27 22 21
24 27 31 30 35 35 35 33 23 26 33 17 17 19 32 22 23 26 28 21 22 22 27 25 27 17 16 10 16 19 17 21 25 31 28 30 34 33 32 27 27 25 22 19
25 30 32 36 35 33 31 23 23 24 22 20 15 11 7 24 32 22 25 27 31 31 30 28 25 19 18 24 28 29 28 24 19 22 27 32 32 30 31 30 26 26 24 22
28 36 36 33 34 31 21 15 13 19 18 16 8 8 13 19 35 36 28 31 37 36 32 16 27 25 19 17 27 25 21 18 19 19 21 26 31 30 24 26 21 18 20 19
35 32 38 31 29 34 22 19 14 17 19 9 7 9 2 20 27 30 21 24 30 18 22 22 11 18 16 24 25 22 22 23 21 20 25 22 25 27 27 30 32 20 21 18
40 41 39 33 27 25 20 15 11 10 15 12 9 10 8 14 28 31 12 16 12 13 19 15 20 23 28 31 32 31 27 25 24 21 24 18 19 25 26 25 25 28 21 24
41 26 35 32 33 30 12 10 7 6 4 8 13 13 10 29 27 25 16 7 8 8 9 13 6 15 27 30 32 33 30 30 29 28 28 27 25 20 22 24 25 26 23 23
34 38 38 30 16 7 6 8 7 5 4 6 10 15 19 27 23 11 8 7 8 3 8 8 8 18 19 21 24 24 26 26 27 27 26 25 26 24 21 22 21 22 22 23
38 37 19 9 4 4 5 5 8 7 15 16 18 19 17 17 9 6 6 7 7 7 9 8 12 16 17 18 19 20 21 22 22 22 22 24 24 23 20 17 17 17 14 14
18 11 9 3 4 5 9 12 14 16 18 17 18 17 9 12 9 5 5 6 6 6 7 7 9 10 11 12 13 13 14 16 15 15 14 14 14 13 12 11 9 8 6 6
3 6 4 5 14 19 16 13 11 13 17 17 14 12 5 9 4 4 4 5 5 5 5 5 5 6 7 7 7 7 6 6 7 6 4 3 2 1 2 2 3 4 4 6
3 4 15 21 20 19 15 12 13 13 12 13 12 10 4 5 5 5 5 3 3 3 5 3 1 2 3 3 3 2 4 6 6 7 10 10 11 11 10 11 11 11 11 9
6 14 20 21 19 17 14 13 12 10 11 12 4 7 5 4 4 4 3 4 8 8 6 4 5 5 7 10 12 14 16 15 15 13 13 12 12 12 12 9 11 11 10 9
Wind_Direction
258 255 249 242 237 234 232 235 241 251 223 221 232 235 238 236 236 225 237 257 280 273 253 309 73 87 109 61 83 109 207 228 237 230 180 239 226 222 226 228 225 226 245 245
254 249 244 237 232 231 224 231 233 243 242 237 235 237 243 248 245 234 236 243 255 270 270 267 281 207 205 59 55 68 95 200 205 220 233 238 237 249 255 249 257 253 250 254
252 245 238 231 229 227 216 225 236 241 221 235 239 233 239 244 250 245 238 246 254 254 260 268 264 268 268 250 271 260 338 190 147 191 196 259 270 237 240 247 258 258 249 264
249 240 236 230 227 221 209 219 234 227 211 234 240 238 240 241 244 250 251 244 242 249 250 263 267 274 283 277 276 260 244 259 270 248 271 291 309 298 275 267 271 259 267 268
247 238 235 228 225 222 214 219 224 236 243 236 231 223 228 241 245 247 250 252 253 249 253 262 271 277 280 274 226 224 219 242 252 257 267 282 291 288 284 266 267 276 286 279
251 243 235 229 225 220 216 221 225 228 244 248 239 228 236 237 244 249 250 254 258 253 260 258 245 261 254 248 249 234 226 214 244 253 263 255 265 274 230 258 283 289 293 297
251 245 238 229 226 222 222 224 227 229 236 250 240 238 240 246 243 248 257 257 256 261 258 253 247 253 258 251 238 230 222 209 228 255 215 236 254 254 258 273 282 303 303 291
251 243 237 229 225 226 224 225 225 229 235 236 240 232 241 246 253 254 254 245 245 247 246 249 272 271 254 247 238 230 231 224 228 228 216 259 251 246 272 269 284 287 287 287
245 241 234 231 225 224 221 228 225 226 234 237 241 244 247 241 236 240 244 230 247 242 212 208 232 226 242 235 224 223 225 218 212 199 198 237 260 187 280 294 276 280 289 289
243 234 230 230 222 218 218 219 222 223 231 235 235 235 237 237 232 240 240 231 235 227 229 239 236 240 231 243 221 182 190 207 223 244 257 267 262 256 270 258 303 333 333 329
242 232 227 223 218 209 213 220 216 214 226 231 239 241 238 237 237 230 230 217 224 228 218 216 216 232 223 238 224 181 197 203 216 229 242 267 280 109 126 296 295 313 331 304
237 228 222 214 211 204 201 207 210 214 222 227 235 241 249 255 249 246 235 237 237 221 211 214 213 223 214 226 230 233 231 221 210 212 224 229 215 270 303 297 290 297 303 295
229 219 214 210 199 193 195 206 208 211 221 226 226 229 225 203 203 229 236 232 229 231 227 230 222 214 217 212 221 223 223 241 251 257 259 262 262 281 285 287 288 282 290 295
215 217 197 199 201 191 199 204 208 210 215 213 217 207 219 257 247 217 224 231 225 215 213 221 231 234 241 228 235 238 231 242 253 259 262 264 264 273 279 283 293 293 282 284
200 201 189 188 180 184 195 200 205 210 210 221 218 227 208 209 198 208 211 224 223 216 210 220 228 222 229 237 248 248 256 259 257 260 261 266 268 274 280 287 292 306 293 273
187 180 182 175 166 172 174 175 180 182 193 157 152 209 220 207 203 205 206 205 213 206 208 224 240 213 230 255 256 267 267 273 270 262 263 267 272 276 282 290 293 293 294 279
170 169 170 165 168 171 170 169 192 189 189 194 202 207 179 206 205 204 204 209 217 219 227 230 238 245 245 253 260 268 277 276 268 270 265 261 263 267 280 288 284 286 287 269
153 155 154 152 165 162 170 175 166 187 178 160 155 170 193 201 208 214 223 223 220 229 226 228 239 241 237 258 262 266 265 257 265 275 272 275 269 272 277 278 277 274 289 280
137 141 141 145 156 162 132 139 145 166 188 180 187 189 92 195 203 207 208 207 210 223 216 215 206 225 231 244 253 258 263 267 270 268 268 266 270 275 274 275 277 272 259 270
138 145 153 150 160 148 152 149 146 157 190 203 226 229 245 212 190 183 159 170 175 177 201 211 216 226 241 248 254 263 267 269 273 269 261 265 273 271 270 267 272 269 263 270
145 127 146 132 122 126 122 134 142 147 175 217 232 243 219 186 189 193 195 183 175 185 189 199 227 242 247 252 259 264 270 270 270 268 264 272 270 279 267 265 265 269 271 272
140 127 127 128 125 110 117 135 137 142 162 164 164 149 151 166 171 164 157 158 162 185 182 199 233 239 249 251 257 263 267 269 264 263 269 272 271 272 271 267 271 273 278 277
128 122 122 113 100 117 131 141 141 146 149 152 155 152 165 143 143 139 155 175 181 172 195 217 232 246 254 262 265 265 267 268 270 269 269 270 273 275 278 281 282 280 281 282
127 131 130 135 118 112 132 155 164 148 149 149 157 156 153 155 153 145 175 184 192 211 209 210 232 252 263 272 280 282 279 274 269 266 266 263 264 270 280 280 273 268 264 262
147 118 120 113 121 125 130 132 139 146 165 172 173 177 148 160 154 185 202 203 208 209 205 209 234 264 289 300 296 292 292 292 283 272 266 267 264 267 260 186 111 104 96 98
107 96 119 133 133 132 131 133 135 144 158 174 192 196 188 194 201 201 211 194 193 181 159 173 255 319 332 338 354 33 71 76 85 93 91 90 90 90 92 94 92 88 84 85
96 122 131 131 130 130 128 129 137 148 171 176 174 187 196 192 205 186 181 178 148 137 126 102 86 93 100 101 100 100 96 93 90 85 84 85 84 82 86 93 94 92 92 86
Height
2951 2955 2960 2965 2970 2975 2977 2980 2982 2983 2991 2993 2988 2988 2991 3000 3006 3009 3009 3009 3008 3010 3011 3010 3010 3010 3011 3011 3010 3010 3015 3017 3020 3023 3025 3026 3028 3031 3033 3033 3033 3033 3032 3031
2941 2945 2950 2956 2962 2966 2971 2972 2974 2978 2983 2981 2983 2986 2988 2995 3000 3004 3007 3007 3008 3009 3010 3012 3010 3010 3011 3010 3010 3010 3013 3015 3019 3021 3024 3024 3025 3027 3029 3029 3030 3026 3031 3029
2931 2935 2940 2946 2953 2958 2964 2967 2968 2970 2969 2970 2977 2980 2984 2988 2992 2996 3000 3003 3004 3007 3007 3008 3008 3008 3010 3010 3011 3011 3012 3012 3013 3016 3018 3020 3020 3021 3023 3024 3023 3023 3020 3025
2920 2926 2932 2938 2944 2950 2956 2957 2958 2962 2961 2964 2968 2975 2978 2982 2985 2990 2994 2996 3000 3003 3004 3003 3003 3004 3004 3005 3005 3008 3010 3010 3012 3012 3014 3016 3017 3018 3018 3017 3017 3016 3018 3018
2910 2916 2923 2928 2935 2941 2945 2946 2949 2954 2956 2960 2963 2965 2970 2974 2981 2985 2988 2991 2993 2997 2999 3000 2999 3000 3000 2999 3002 3003 3004 3006 3008 3010 3012 3012 3012 3012 3012 3011 3011 3008 3010 3010
2899 2905 2911 2918 2924 2930 2931 2936 2940 2947 2948 2954 2957 2958 2964 2969 2975 2979 2983 2987 2988 2990 2992 2992 2992 2992 2994 2994 2998 3000 3001 3004 3006 3005 3008 3010 3008 3006 3007 3006 3007 3006 3005 3005
2887 2892 2899 2906 2912 2916 2922 2926 2933 2940 2940 2945 2949 2954 2960 2963 2968 2974 2978 2981 2983 2985 2985 2986 2987 2988 2988 2989 2992 2995 2997 3001 3003 3003 3006 3005 2998 3002 3002 3002 3003 3003 3000 2998
2875 2879 2885 2892 2899 2906 2910 2918 2925 2930 2933 2940 2943 2947 2953 2960 2964 2967 2972 2976 2978 2979 2981 2983 2984 2984 2984 2984 2985 2988 2993 2997 2999 3001 2999 2995 2994 2996 2997 2997 2997 2996 2994 2992
2862 2867 2872 2877 2884 2892 2901 2907 2916 2924 2928 2928 2940 2944 2947 2952 2957 2963 2966 2971 2973 2976 2978 2980 2981 2981 2981 2982 2982 2982 2987 2992 2997 2996 2995 2991 2988 2990 2991 2993 2990 2990 2989 2987
2850 2854 2860 2865 2872 2881 2890 2896 2908 2917 2918 2924 2931 2933 2939 2947 2951 2956 2961 2965 2968 2971 2974 2976 2978 2979 2981 2980 2979 2980 2983 2988 2989 2992 2992 2984 2985 2989 2989 2990 2992 2986 2985 2985
2839 2843 2849 2855 2862 2872 2881 2889 2898 2906 2912 2918 2924 2927 2932 2939 2944 2950 2955 2962 2963 2966 2968 2971 2972 2974 2977 2978 2978 2978 2980 2984 2985 2988 2989 2985 2981 2982 2987 2986 2982 2982 2979 2978
2829 2834 2839 2847 2855 2864 2873 2882 2890 2901 2909 2914 2918 2922 2926 2933 2938 2945 2948 2955 2957 2960 2962 2965 2968 2970 2971 2973 2974 2975 2978 2977 2978 2979 2978 2980 2980 2980 2980 2978 2976 2975 2974 2974
2821 2826 2832 2840 2849 2858 2868 2874 2886 2895 2902 2909 2915 2916 2923 2927 2933 2939 2943 2947 2951 2953 2959 2961 2963 2965 2967 2969 2970 2972 2972 2973 2972 2974 2975 2976 2977 2976 2974 2974 2971 2969 2969 2968
2813 2819 2827 2834 2843 2854 2861 2871 2879 2889 2897 2904 2909 2913 2918 2925 2929 2932 2937 2940 2944 2950 2953 2956 2958 2961 2963 2965 2967 2968 2969 2969 2969 2968 2969 2969 2972 2971 2968 2969 2967 2964 2963 2962
2808 2815 2823 2832 2841 2850 2859 2870 2879 2886 2897 2898 2904 2911 2915 2919 2924 2928 2932 2935 2941 2945 2948 2950 2954 2956 2960 2960 2961 2961 2963 2964 2964 2964 2964 2964 2964 2964 2962 2962 2961 2958 2955 2956
2806 2813 2823 2832 2841 2849 2859 2870 2877 2884 2891 2896 2901 2907 2912 2917 2921 2925 2928 2932 2936 2940 2942 2946 2947 2952 2956 2955 2954 2955 2956 2956 2956 2956 2957 2957 2956 2957 2956 2955 2954 2953 2951 2949
2805 2814 2824 2834 2842 2852 2861 2869 2874 2881 2888 2895 2901 2904 2907 2910 2917 2921 2924 2929 2932 2935 2938 2941 2944 2949 2950 2949 2947 2947 2948 2949 2948 2947 2947 2949 2948 2949 2950 2949 2948 2946 2945 2943
2807 2816 2828 2837 2846 2857 2864 2871 2875 2880 2888 2894 2897 2900 2904 2906 2908 2914 2919 2923 2926 2930 2934 2936 2940 2945 2945 2943 2939 2939 2940 2942 2941 2941 2940 2940 2941 2942 2941 2941 2941 2940 2939 2937
2816 2824 2834 2843 2852 2860 2866 2873 2879 2884 2890 2891 2894 2897 2900 2901 2905 2910 2916 2917 2920 2925 2928 2933 2935 2937 2937 2932 2932 2933 2935 2935 2936 2936 2935 2934 2934 2933 2933 2933 2932 2932 2932 2932
2826 2835 2842 2850 2857 2864 2870 2877 2879 2883 2886 2889 2891 2893 2897 2900 2903 2908 2912 2914 2918 2921 2926 2929 2929 2929 2927 2926 2926 2927 2929 2930 2929 2929 2930 2929 2928 2926 2925 2925 2925 2924 2924 2924
2836 2840 2846 2855 2862 2869 2874 2878 2881 2883 2885 2886 2888 2891 2892 2896 2901 2904 2910 2912 2916 2919 2922 2924 2922 2920 2919 2920 2922 2922 2922 2922 2922 2921 2923 2923 2922 2920 2919 2917 2916 2916 2915 2916
2845 2848 2856 2862 2867 2872 2875 2877 2880 2882 2884 2885 2888 2890 2893 2897 2901 2906 2910 2911 2914 2916 2918 2920 2917 2914 2915 2915 2914 2914 2914 2914 2914 2914 2914 2914 2914 2914 2913 2911 2909 2909 2908 2908
2855 2859 2864 2867 2871 2872 2874 2875 2878 2880 2883 2886 2888 2891 2895 2897 2902 2905 2908 2910 2913 2915 2915 2913 2910 2909 2909 2909 2909 2909 2908 2908 2908 2908 2907 2907 2907 2907 2906 2905 2903 2902 2902 2902
2863 2865 2868 2869 2869 2870 2873 2876 2879 2881 2885 2889 2891 2893 2896 2899 2902 2904 2906 2908 2910 2909 2908 2906 2906 2906 2905 2905 2904 2904 2903 2903 2903 2902 2902 2901 2901 2900 2900 2899 2899 2898 2897 2896
2865 2867 2868 2868 2870 2873 2876 2879 2881 2884 2887 2890 2893 2896 2899 2900 2903 2903 2905 2905 2904 2903 2903 2904 2904 2904 2904 2903 2902 2901 2900 2899 2899 2899 2899 2898 2898 2897 2897 2897 2896 2896 2896 2895
2865 2867 2868 2872 2875 2877 2880 2883 2885 2887 2889 2892 2895 2897 2898 2899 2900 2901 2900 2902 2901 2902 2902 2904 2904 2904 2903 2902 2902 2901 2900 2900 2900 2899 2899 2899 2899 2899 2899 2898 2898 2898 2898 2898
2867 2871 2874 2877 2880 2882 2884 2886 2888 2890 2892 2893 2894 2895 2895 2897 2897 2898 2898 2899 2900 2901 2903 2903 2904 2904 2904 2903 2903 2902 2903 2903 2902 2903 2903 2903 2903 2902 2902 2902 2901 2901 2902 2902